Regional Weather Roundup
Issued by NWS Grand Forks, ND

Home | Current Version | Previous Version | Graphics & Text | Print | Product List | Glossary On
Versions: 1 2 3 4 5 6 7 8 9 10 11 12 13 14 15 16 17 18 19 20 21 22 23 24 25 26 27 28 29 30 31 32 33 34 35 36 37 38 39 40 41 42 43 44 45 46 47 48 49 50
000
ASUS43 KFGF 250131
RWRFGF
PRAIRIE TO PINES  WEATHER ROUNDUP
NATIONAL WEATHER SERVICE EASTERN NORTH DAKOTA/GRAND FORKS ND
700 PM CST FRI NOV 24 2017

 **SATELLITE DATA USED TO AUGMENT SKY COVER AT AUTOMATED STATIONS**
 *****  WEATHER ACROSS EASTERN NORTH DAKOTA  *****

CITY           SKY/WX    TMP DP  RH WIND       PRES   REMARKS
GRAND FORKS    FAIR      38  33  82 NW13G22   29.66R
GRAND FRKS AFB FAIR      38  33  79 NW12      29.67R
GRAND FRKS NWS   N/A     36 N/A N/A NW14        N/A
DEVILS LAKE    FAIR      37  31  78 W17       29.71R
FARGO          FAIR      38  34  85 W14       29.67R
WAHPETON ARPT  NOT AVBL
$$

 ***** WEATHER ACROSS CENTRAL AND WESTERN NORTH DAKOTA  *****

CITY           SKY/WX    TMP DP  RH WIND       PRES   REMARKS
BISMARCK       FAIR      44  32  62 W8        29.83R
MINOT          FAIR      42  31  64 W14       29.76R
JAMESTOWN      FAIR      39  33  79 W13       29.74R
MINOT AFB      FAIR      37  30  78 NW9       29.75R
GARRISON         N/A     39  31  72 W12       29.79R
WILLISTON      FAIR      41  32  70 W15       29.81R
DICKINSON      FAIR      39  29  67 W13       29.84R
HETTINGER      FAIR      30  25  81 NW7       29.91R WCI  23
$$

 *****  OTHER AIRPORT OBSERVATIONS IN OUR AREA  *****

CITY           SKY/WX    TMP DP  RH WIND       PRES   REMARKS
WALHALLA       FAIR      30  30 100 N16G22    29.70R WCI  19
GRAFTON AIRPOR FAIR      37  32  81 NW20      29.69R
VALLEY CITY AR FAIR      39  34  81 NW13G20   29.76R
CANDO          FAIR      34  34 100 NW13      29.74R WCI  25
CAVALIER APRT  MOCLDY    32  25  74 N16G23    29.69R WCI  21
GWINNER          N/A     43  36  75 W18G25    29.75R
SHEYENNE NWR     N/A     41  36  81 W12       29.95S
ROLLA          FAIR      36  28  75 NW24      29.71R
 ***** THE ABOVE OBSERVATIONS ARE NON NWS ARE NOT QUALITY
       CONTROLLED AND MAY MIS-REPORT RAIN FOR SNOW...
$$

  *****  WEATHER ACROSS NORTHERN MINNESOTA  *****

CITY           SKY/WX    TMP DP  RH WIND       PRES   REMARKS
FLAG ISLAND    CLOUDY    30  21  69 NW25G36   29.56R WCI  16
WARROAD        CLOUDY    34  28  80 NW21G29   29.59R WCI  22
ROSEAU         CLOUDY    36  30  80 NW22      29.59R
HALLOCK        CLOUDY    34  28  80 N18       29.66R WCI  23
THF RVR FALLS  FAIR      37  30  75 NW20G26   29.63R
BAUDETTE       CLOUDY    38  30  73 W16G22    29.51R
WASKISH        CLOUDY    36  32  87 W12       29.56R
CROOKSTON      FAIR      36  32  87 NW10      29.68R
STEPHEN NDAWN    N/A     36  30  80 NW12        N/A
GREENBUSH NDAW   N/A     36  30  80 NW13        N/A
$$
  *****  WEATHER ACROSS CENTRAL AND WEST MINNESOTA  *****

CITY           SKY/WX    TMP DP  RH WIND       PRES   REMARKS
FOSSTON        MOCLDY    36  32  87 NW9       29.65R
BEMIDJI        CLOUDY    37  32  82 W14       29.59R
PARK RAPIDS    FAIR      36  32  85 W10       29.60R
ELBOW LAKE     FAIR      35  32  88 NW7       29.70R
WADENA         FAIR      37  32  81 W7        29.65R
DETROIT LAKES  FAIR      41  34  75 NW18      29.66R
MOORHEAD       FAIR      43  34  70 W18       29.70R
FERGUS FALLS   MOCLDY    37  32  81 W9        29.71R
MORRIS MN      FAIR      37  32  81 W10       29.71R
STAPLES        FAIR      36  30  80 W9        29.64R
$$
  *****  WEATHER ELSEWHERE ACROSS MINNESOTA  *****

CITY           SKY/WX    TMP DP  RH WIND       PRES   REMARKS
DULUTH         CLOUDY    39  34  82 NW17G23   29.49R
INTRNTL FALLS  CLOUDY    37  28  70 W9        29.49R
ELY            CLOUDY    37  28  70 NW9       29.47R
CLOQUET        CLOUDY    39  36  87 W12       29.53R
WHEATON        FAIR      43  34  70 W12       29.74R
BRAINERD       FAIR      41  32  70 W14G22    29.60R
HIBBING        CLOUDY    38  33  82 W10       29.50R
ALEXANDRIA     FAIR      41  32  70 NW12      29.68R
SAINT CLOUD    FAIR      42  35  76 W13       29.63R
MINNEAPOLIS    FAIR      46  38  73 NW16G28   29.62R
$$

  *****  WEATHER ACROSS SOUTH DAKOTA  *****

CITY           SKY/WX    TMP DP  RH WIND       PRES   REMARKS
SIOUX FALLS    FAIR      45  34  65 W10       29.80R
BROOKINGS      FAIR      38  31  76 NW9       29.77R
WATERTOWN      FAIR      40  34  79 NW7       29.76R
HURON          FAIR      37  31  78 W13       29.81R
SISSETON         N/A     46  36  68 NW17      29.72R
ABERDEEN       FAIR      45  35  68 W15       29.80R
MITCHELL       FAIR      45  32  60 W8        29.83R
PIERRE         FAIR      45  36  70 NW12      29.86R
MOBRIDGE       FAIR      36  29  75 NW7       29.83R
RAPID CITY     FAIR      40  27  59 N14       29.92R
$$

  *****  SOME WEATHER IN NEARBY STATES *****

CITY           SKY/WX    TMP DP  RH WIND       PRES   REMARKS
GLASGOW MT     FAIR      39  27  62 W10       29.85R
GREAT FALLS MT FAIR      39  21  48 SW15      29.93S
CHEYENNE WY    FAIR      42  34  73 N6        30.00R
SCOTTSBLUFF NE FAIR      40  20  44 CALM      29.96R
OMAHA NE       FAIR      56  37  49 NW21G35   29.79R
DES MOINES IA  MOCLDY    59  41  51 NW21G31   29.69R
DAVENPORT IA   FAIR      53  41  63 NW12      29.57R
CHICAGO IL     FAIR      56  39  53 S18G26    29.47F
EAU CLAIRE WI  FAIR      44  41  89 W8        29.54R
LA CROSSE WI   MOCLDY    50  46  86 NW17      29.54R
$$

  *****  SOME NATIONAL WEATHER *****

CITY           SKY/WX    TMP DP  RH WIND       PRES   REMARKS
LA GUARDIA NY  FAIR      47  27  45 S6        29.97S
RALEIGH NC     FAIR      39  28  64 NE3       29.98S
ATLANTA GA     FAIR      52  44  74 SW3       29.97R
NEW ORLEANS LA FAIR      57  37  47 S5        29.98R
OKLAHOMA CITY  FAIR      59  36  42 SE10      29.73S
ALBUQUERQUE NM FAIR      60  23  24 VRB3      30.01R
SALT LAKE CITY MOCLDY    52  40  63 CALM      30.10S
LOS ANGELES CA FAIR      71  54  54 W5        29.85S
BOISE ID       FAIR      47  30  51 E3        30.12R
SEATTLE WA     CLOUDY    49  43  80 SE7       30.07S
$$

*** WEATHER ACROSS MANITOBA...SASKATCHEWAN AND ONTARIO ***
                ***ONTARIO***

CITY           SKY/WX    TMP DP  RH WIND       PRES   REMARKS
GERALDTON      LGT SNOW  32  30  93 NW6       29.26R
THUNDER BAY    CLOUDY    39  30  70 W12G20    29.37R
SIOUX LOOKOUT  FLURRIES  27  21  80 NW16G26   29.40R WCI  14
TORONTO        MOCLDY    48  27  43 SW12G21   29.62F
BIG TROUT LK   FLURRIES   9   5  85 NW10      29.39R WCI  -6
PICKLE LAKE    FLURRIES  19  16  86 NW8       29.34R WCI   9
DRYDEN         CLOUDY    28  21  74 NW14G22   29.45R WCI  17
KENORA         CLOUDY    27  16  63 NW18G29   29.51R WCI  13
$$
                *** MANITOBA***

CITY           SKY/WX    TMP DP  RH WIND       PRES   REMARKS
BRANDON        PTCLDY    30  25  80 NW18G26   29.72R WCI  18
DAUPHIN        CLOUDY    18  14  86 N2        29.78R
ISLAND LAKE    FLURRIES   7   1  78 NW16G22   29.61R WCI -11
PILOT MOUND      N/A     34  28  80 NW20        N/A  WCI  22
THE PAS        CLEAR      3  -2  78 W7        29.79R WCI  -9
THOMPSON       PTCLDY    -2  -8  78 NW7       29.69R WCI -16
WINNIPEG       PTCLDY    25  18  74 NW21G32   29.69R WCI  10
LYNN LAKE      CLOUDY    -2  -6  84 NW6       29.70S WCI -14
CHURCHILL      FLURRIES   9   5  85 NW18G24   29.56R WCI -10
GILLAM         PTCLDY    -2  -8  78 NW8       29.62  WCI -17
$$
                ***SASKATCHEWAN***

CITY           SKY/WX    TMP DP  RH WIND       PRES   REMARKS
ESTEVAN        PTCLDY    30  28  93 W9        29.78R WCI  22
KINDERSLEY     PTCLDY    30  25  80 W9        29.79R WCI  22
LLOYDMINSTER   PTCLDY    25  23  93 W9        29.74R WCI  15
PRINCE ALBERT  CLOUDY    21  12  68 NW7       29.80R WCI  13
REGINA         PTCLDY    32  30  93 W9        29.78R WCI  24
YORKTON        CLOUDY    21  16  79 N10       29.75R WCI  10
N. BATTLEFORD  FOG       19  18  93 W2        29.78R VSB 1/2
LA RONGE       PTCLDY     5   1  85 N3        29.79R
SASKATOON      MOCLDY    19  14  79 NE8       29.79R WCI   9
SWIFT CURRENT  CLEAR     32  28  86 W10       29.79R WCI  24
$$
NOTE: THESE ARE AUTOMATED STATIONS WITH LIMITED QUALITY CONTROL
      "FAIR" INDICATES FEW OR NO CLOUDS BELOW 12,000 FEET WITH NO
      SIGNIFICANT WEATHER AND/OR OBSTRUCTIONS TO VISIBILITY.
      SKY/WX - SKY CONDITION AND SIGNIFICANT WEATHER.
      TMP - AIR TEMPERATURE.    DP   - DEWPOINT TEMPERATURE.
      RH  - RELATIVE HUMIDITY.  PRES - PRESSURE.
      HX  - HEAT INDEX.         WCI  - WIND CHILL INDEX.
$




USA.gov is the U.S. government's official web portal to all federal, state and local government web resources and services.